Powrót do katalogu

SL-16 DEB

AktywnyLEO
NORAD 22343·DEBRIS·🇷🇺 Russia

Wystrzelony Dec 25, 1992 z Baikonur Cosmodrome

Loading…

Następne Przeloty (najbliższe 24 godziny)

TLE

ŚwieżeSource: Space-Track

Epoka: Sep 14, 2026, 13:27 UTC

1 22343U 92093AG  26257.56066950  .00000103  00000-0  78464-4 0  9993
2 22343  70.9468 289.2400 0092878  45.8703 115.7477 14.12141471728821

Śledź SL-16 DEB w czasie rzeczywistym z AllMySat

Download on the App Store